EA3KZ-1 Weather Reports


time (UTC)temp
C
wind
direction
speed
KPH
gust
KPH
rain 1hr
cm
rain 24hr
cm
rain mn
cm
humidity
%
barometer
mb
20260904123613 36 136 3.2 11.3 0.00 0.00 0.00 41 1015.8
20260904122610 36 166 3.2 9.7 0.00 0.00 0.00 40 1016.0
20260904121608 36 117 6.4 12.9 0.00 0.00 0.00 39 1015.9
20260904120605 35 59 4.8 12.9 0.00 0.00 0.00 41 1016.1
20260904115603 35 121 6.4 17.7 0.00 0.00 0.00 41 1016.2
20260904114600 35 111 6.4 14.5 0.00 0.00 0.00 40 1016.4
20260904113557 35 135 6.4 11.3 0.00 0.00 0.00 40 1016.5
20260904112555 34 102 4.8 11.3 0.00 0.00 0.00 43 1016.6
20260904111552 34 110 1.6 11.3 0.00 0.00 0.00 42 1016.6
20260904110550 34 99 3.2 9.7 0.00 0.00 0.00 44 1016.7
20260904105547 33 87 3.2 9.7 0.00 0.00 0.00 47 1016.8
20260904104544 33 345 1.6 6.4 0.00 0.00 0.00 49 1016.9
20260904103542 33 113 1.6 6.4 0.00 0.00 0.00 49 1017.0
20260904102539 33 98 3.2 6.4 0.00 0.00 0.00 50 1017.1
20260904101537 32 146 3.2 6.4 0.00 0.00 0.00 53 1017.2
20260904100534 32 135 1.6 6.4 0.00 0.00 0.00 53 1017.3
20260904095531 31 117 1.6 6.4 0.00 0.00 0.00 54 1017.2
20260904094529 31 126 3.2 6.4 0.00 0.00 0.00 55 1017.3
20260904093526 31 9 1.6 6.4 0.00 0.00 0.00 55 1017.3
20260904092524 31 131 1.6 6.4 0.00 0.00 0.00 55 1017.3
20260904091521 30 198 0.0 3.2 0.00 0.00 0.00 56 1017.3
20260904090518 30 0 1.6 6.4 0.00 0.00 0.00 56 1017.2
20260904085516 30 90 0.0 3.2 0.00 0.00 0.00 56 1017.2
20260904084614 30 293 0.0 3.2 0.00 0.00 0.00 59 1017.2
20260904083611 28 112 1.6 3.2 0.00 0.00 0.00 60 1017.1
20260904082608 29 107 0.0 3.2 0.00 0.00 0.00 60 1017.0
20260904081606 28 0.0 3.2 0.00 0.00 0.00 60 1017.1
20260904080603 28 113 0.0 3.2 0.00 0.00 0.00 60 1017.0
20260904075601 28 0.0 0.0 0.00 0.00 0.00 62 1016.9
20260904074558 27 0.0 3.2 0.00 0.00 0.00 64 1016.9
20260904073555 27 113 0.0 3.2 0.00 0.00 0.00 66 1016.8
20260904072553 26 107 0.0 6.4 0.00 0.00 0.00 68 1016.8
20260904071550 25 109 1.6 3.2 0.00 0.00 0.00 69 1016.9
20260904070548 25 144 1.6 3.2 0.00 0.00 0.00 70 1016.8
20260904065545 25 0.0 3.2 0.00 0.00 0.00 69 1016.9
20260904064542 26 0.0 0.0 0.00 0.00 0.00 67 1016.8
20260904063540 25 50 1.6 3.2 0.00 0.00 0.00 69 1016.7
20260904062537 25 113 0.0 3.2 0.00 0.00 0.00 70 1016.7
20260904061534 24 0.0 0.0 0.00 0.00 0.00 73 1016.6
20260904060532 24 0.0 0.0 0.00 0.00 0.00 73 1016.5
20260904055529 23 286 1.6 3.2 0.00 0.00 0.00 75 1016.4
20260904054527 22 0.0 0.0 0.00 0.00 0.00 78 1016.5
20260904053524 22 0.0 0.0 0.00 0.00 0.00 79 1016.5
20260904052522 22 0.0 0.0 0.00 0.00 0.00 78 1016.4
20260904051519 22 0.0 0.0 0.00 0.00 0.00 78 1016.5
20260904050517 22 0.0 3.2 0.00 0.00 0.00 79 1016.4
20260904045614 22 293 1.6 3.2 0.00 0.00 0.00 79 1016.5
20260904044611 22 270 0.0 3.2 0.00 0.00 0.00 80 1016.7
20260904043609 22 225 0.0 3.2 0.00 0.00 0.00 80 1016.6
20260904042606 22 0.0 3.2 0.00 0.00 0.00 80 1016.7
20260904041604 22 304 0.0 3.2 0.00 0.00 0.00 81 1016.7
20260904040601 22 289 1.6 3.2 0.00 0.00 0.00 81 1016.7
20260904035558 22 232 0.0 3.2 0.00 0.00 0.00 81 1017.0
20260904034556 22 228 1.6 3.2 0.00 0.00 0.00 82 1017.0
20260904033553 22 225 1.6 3.2 0.00 0.00 0.00 82 1016.9
20260904032551 22 203 0.0 3.2 0.00 0.00 0.00 83 1017.0
20260904031548 22 68 0.0 3.2 0.00 0.00 0.00 83 1017.1
20260904030545 22 45 0.0 3.2 0.00 0.00 0.00 83 1017.2
20260904025543 22 236 0.0 3.2 0.00 0.00 0.00 83 1017.2
20260904024540 22 237 3.2 6.4 0.00 0.00 0.00 84 1017.3
20260904023538 22 203 1.6 3.2 0.00 0.00 0.00 85 1017.5
20260904022535 22 180 0.0 3.2 0.00 0.00 0.00 84 1017.5
20260904021533 22 233 1.6 3.2 0.00 0.00 0.00 85 1017.5
20260904020530 21 203 1.6 6.4 0.00 0.00 0.00 86 1017.6
20260904015527 22 204 3.2 6.4 0.00 0.00 0.00 86 1017.6
20260904014525 22 225 0.0 3.2 0.00 0.00 0.00 86 1017.8
20260904013522 22 199 3.2 6.4 0.00 0.00 0.00 86 1018.0
20260904012520 21 158 3.2 3.2 0.00 0.00 0.00 86 1017.9
20260904011517 22 209 1.6 3.2 0.00 0.00 0.00 86 1017.9
20260904010615 22 139 1.6 3.2 0.00 0.00 0.00 87 1018.1
20260904005612 22 158 0.0 3.2 0.00 0.00 0.00 87 1018.2
20260904004610 22 0.0 3.2 0.00 0.00 0.00 88 1018.3
20260904003607 22 152 1.6 3.2 0.00 0.00 0.00 89 1018.4
20260904002604 22 172 1.6 3.2 0.00 0.00 0.00 89 1018.5
20260904001602 22 234 1.6 6.4 0.00 0.00 0.00 90 1018.6
20260904000559 22 225 1.6 3.2 0.00 0.00 0.00 90 1018.6
20260903235557 22 177 1.6 6.4 0.00 0.00 0.00 90 1018.8
20260903234554 22 221 3.2 6.4 0.00 0.00 0.00 90 1018.8
20260903233551 22 188 1.6 6.4 0.00 0.00 0.00 90 1018.8
20260903232549 22 164 3.2 6.4 0.00 0.00 0.00 91 1018.8
20260903231546 23 164 3.2 6.4 0.00 0.00 0.00 90 1018.9
20260903230543 23 191 4.8 9.7 0.00 0.00 0.00 90 1018.9
20260903225541 23 193 4.8 9.7 0.00 0.00 0.00 89 1019.0
20260903224539 23 213 3.2 6.4 0.00 0.00 0.00 89 1018.9
20260903223536 23 203 4.8 9.7 0.00 0.00 0.00 89 1019.0
20260903222533 23 199 3.2 9.7 0.00 0.00 0.00 89 1018.9
20260903221531 23 207 4.8 11.3 0.00 0.00 0.00 88 1018.9
20260903220528 23 206 4.8 9.7 0.00 0.00 0.00 88 1019.0
20260903215525 23 201 6.4 9.7 0.00 0.00 0.00 88 1019.2
20260903214523 23 159 4.8 9.7 0.00 0.00 0.00 87 1019.0
20260903213520 23 192 9.7 12.9 0.00 0.00 0.00 85 1019.1
20260903212517 23 153 4.8 9.7 0.00 0.00 0.00 83 1019.1
20260903211515 23 162 4.8 9.7 0.00 0.00 0.00 82 1019.0
20260903210613 23 181 8.0 14.5 0.00 0.00 0.00 82 1019.0
20260903205610 24 189 6.4 9.7 0.00 0.00 0.00 80 1019.2
20260903204608 24 206 4.8 9.7 0.00 0.00 0.00 80 1019.2
20260903203605 24 202 6.4 9.7 0.00 0.00 0.00 79 1019.3
20260903202602 24 170 3.2 6.4 0.00 0.00 0.00 79 1019.3
20260903201600 25 177 1.6 6.4 0.00 0.00 0.00 79 1019.3
20260903200557 25 183 3.2 6.4 0.00 0.00 0.00 79 1019.2
20260903195554 25 176 3.2 6.4 0.00 0.00 0.00 77 1019.1
20260903194552 25 172 4.8 6.4 0.00 0.00 0.00 77 1019.0
20260903193549 25 173 4.8 9.7 0.00 0.00 0.00 77 1019.0
20260903192547 25 180 6.4 11.3 0.00 0.00 0.00 75 1018.8
20260903191544 25 171 4.8 9.7 0.00 0.00 0.00 74 1018.8
20260903190541 25 177 3.2 6.4 0.00 0.00 0.00 74 1018.6
20260903185539 25 149 4.8 9.7 0.00 0.00 0.00 73 1018.4
20260903184536 26 118 3.2 6.4 0.00 0.00 0.00 73 1018.4
20260903183534 26 135 3.2 11.3 0.00 0.00 0.00 72 1018.3
20260903182531 26 101 3.2 11.3 0.00 0.00 0.00 72 1018.3
20260903181528 26 126 4.8 11.3 0.00 0.00 0.00 72 1018.2
20260903180526 26 138 8.0 12.9 0.00 0.00 0.00 71 1018.2
20260903175523 27 156 4.8 12.9 0.00 0.00 0.00 70 1018.0
20260903174521 27 118 6.4 12.9 0.00 0.00 0.00 70 1018.1
20260903173518 27 119 9.7 17.7 0.00 0.00 0.00 69 1018.0
20260903172515 27 124 8.0 17.7 0.00 0.00 0.00 68 1017.9
20260903171613 27 218 6.4 20.9 0.00 0.00 0.00 67 1017.9
20260903170610 28 127 8.0 20.9 0.00 0.00 0.00 67 1017.8
20260903165608 28 178 11.3 22.5 0.00 0.00 0.00 66 1017.8
20260903164605 28 160 11.3 20.9 0.00 0.00 0.00 65 1017.9
20260903163603 28 178 9.7 20.9 0.00 0.00 0.00 64 1017.9
20260903162600 29 162 9.7 20.9 0.00 0.00 0.00 64 1017.8
20260903161558 29 151 12.9 17.7 0.00 0.00 0.00 62 1017.8
20260903160555 30 101 8.0 17.7 0.00 0.00 0.00 59 1017.8
20260903155552 30 142 8.0 17.7 0.00 0.00 0.00 58 1017.8
20260903154550 30 123 9.7 20.9 0.00 0.00 0.00 56 1017.9
20260903153547 31 124 6.4 14.5 0.00 0.00 0.00 53 1017.8
20260903152544 31 120 6.4 17.7 0.00 0.00 0.00 52 1017.9
20260903151542 32 138 9.7 20.9 0.00 0.00 0.00 49 1017.8
20260903150539 32 129 8.0 17.7 0.00 0.00 0.00 49 1017.8
20260903145537 32 205 4.8 12.9 0.00 0.00 0.00 50 1017.9
20260903144534 32 99 4.8 12.9 0.00 0.00 0.00 49 1017.9
20260903143531 31 146 6.4 17.7 0.00 0.00 0.00 49 1017.9
20260903142529 32 84 6.4 12.9 0.00 0.00 0.00 49 1017.8
20260903141526 32 85 4.8 12.9 0.00 0.00 0.00 50 1018.0
20260903140524 31 188 6.4 17.7 0.00 0.00 0.00 51 1018.0
20260903135521 31 115 8.0 17.7 0.00 0.00 0.00 51 1018.1
20260903134519 32 94 6.4 12.9 0.00 0.00 0.00 50 1018.0
20260903133516 32 112 4.8 14.5 0.00 0.00 0.00 50 1018.3
20260903132613 32 186 4.8 17.7 0.00 0.00 0.00 49 1018.3
20260903131611 31 96 4.8 17.7 0.00 0.00 0.00 49 1018.3
20260903130609 32 128 4.8 12.9 0.00 0.00 0.00 49 1018.3
20260903125605 32 82 3.2 11.3 0.00 0.00 0.00 47 1018.5
20260903124602 32 102 3.2 9.7 0.00 0.00 0.00 45 1018.4